Regional Weather Roundup
Issued by NWS Kansas City/Pleasant Hill, MO

Home | Current Version | Previous Version | Graphics & Text | Print | Product List | Glossary Off
Versions: 1 2 3 4 5 6 7 8 9 10 11 12 13 14 15 16 17 18 19 20 21 22 23 24 25 26 27 28 29 30 31 32 33 34 35 36 37 38 39 40 41 42 43 44 45 46 47 48 49 50

000
ASUS43 KEAX 242211
RWREAX

WEATHER ROUNDUP FOR EASTERN KANSAS AND NORTHWEST MISSOURI
NATIONAL WEATHER SERVICE KANSAS CITY/PLEASANT HILL MO
500 PM CDT THU JUL 24 2014

KSZ040-057-103>105-MOZ028-029-037-043-242300-
...KANSAS CITY METROPOLITAN AREA...

CITY           SKY/WX    TMP DP  RH WIND       PRES   REMARKS
K.C. INTL      MOSUNNY   82  60  47 S14       30.02F
K.C. DOWNTOWN  SUNNY     84  58  40 SE15      30.01F
LEES SUMMIT    SUNNY     81  59  47 S9        30.04F
OLATHE - IXD   SUNNY     84  58  40 SE13      30.03F
OLATHE - OJC   SUNNY     82  60  47 S10       30.02F
LAWRENCE       SUNNY     87  58  37 SE16      30.00F

$$

MOZ001>008-011>017-020>025-030>033-038>040-044>046-053-054-242300-
...NORTHERN AND CENTRAL MISSOURI...

CITY           SKY/WX    TMP DP  RH WIND       PRES   REMARKS
ST. JOSEPH     SUNNY     82  62  50 SE16      30.02F
MOSBY          CLEAR     81  57  44 S10       30.03F
WARRENSBURG    SUNNY     81  55  41 S5        30.04S
WHITEMAN AFB   SUNNY     82  44  25 SE7       30.04F
CLINTON        SUNNY     82  61  47 S6        30.03F
SEDALIA        SUNNY     83  55  38 E8        30.06F
WARSAW         NOT AVBL
MARSHALL       SUNNY     84  61  45 SE7       30.07S HAZE
CHILLICOTHE      N/A     80  58  46 VRB5      30.07F
MOBERLY        SUNNY     82  55  39 SE5       30.09R
KIRKSVILLE     PTSUNNY   78  58  49 SE6       30.12R

$$

MOZ041-047>049-056>058-063>065-088>090-097-242300-
...EASTERN AND SOUTHERN MISSOURI...

CITY           SKY/WX    TMP DP  RH WIND       PRES   REMARKS
ST. LOUIS INTL MOSUNNY   81  53  37 VRB5      30.05F
SPIRIT OF STL  PTSUNNY   80  51  36 E5        30.04F
COLUMBIA       MOSUNNY   81  56  42 E9        30.05F
JEFFERSON CITY MOSUNNY   81  55  40 SE7       30.02F
MEXICO         MOSUNNY   81  61  50 E5        30.07F
HANNIBAL       MOSUNNY   82  50  32 SE5       30.09R
ROLLA          MOSUNNY   80  48  32 E6        30.05F
OSAGE BEACH    MOSUNNY   82  55  39 NE6       30.04F
SPRINGFIELD    SUNNY     83  54  36 E5        30.06F
BRANSON        SUNNY     90  57  33 SE5       30.07F
NEVADA         SUNNY     84  61  45 SE6       30.04F
JOPLIN         SUNNY     87  62  43 VRB6      30.03F
WEST PLAINS    SUNNY     81  56  42 NE7       30.08F
MALDEN         SUNNY     81  61  50 N9        30.05S

$$

IAZ060-094-KSZ022-034>040-054-083-096-NEZ052-066-093-242300-
...KANSAS...SOUTHEAST NEBRASKA AND IOWA...

CITY           SKY/WX    TMP DP  RH WIND       PRES   REMARKS
TOPEKA         SUNNY     88  60  38 SE13G22   29.99F
MANHATTAN      SUNNY     90  61  37 S17G25    29.97F HX  90
EMPORIA        SUNNY     86  64  47 S15       29.99F
CHANUTE        SUNNY     86  66  51 SE12      30.02F
WICHITA        MOSUNNY   90  69  50 SE16      29.99F HX  94
OMAHA          PTSUNNY   83  61  47 SE22G32   29.96F
LINCOLN        SUNNY     88  63  43 SE17G28   29.96F
FALLS CITY     SUNNY     84  62  47 SE15      29.99F
LAMONI         CLOUDY    75  58  55 SE6       30.08S
DES MOINES     CLOUDY    75  61  61 VRB7      30.02F

$$



USA.gov is the U.S. government's official web portal to all federal, state and local government web resources and services.